sat.trackr.live / text

‹ back to catalog

STARLINK-30465

NORAD 57891 · 2023-146A

PAYLOAD ACTIVE UNKNOWN

§ Identity

Operator
Country
US
Launch date
2023-09-20
Launch site
AFETR
Launch vehicle
Mass (kg)
RCS (m²)

Purposes: comms

External: N2YO · Heavens-Above · Gunter

§ Orbital elements

Epoch: 2026-05-24T23:18:34.272000Z

Period
94.27 min
Inclination
42.9979°
Eccentricity
0.0001836
Mean motion
15.27562059 rev/d
Perigee alt
481.8 km
Apogee alt
484.4 km
Semi-major
6,861.2 km
B*
-5.4634e-5
RAAN
243.3155°
Arg perigee
273.1497°
Mean anomaly
86.9144°
Rev number
14,872

§ Raw data

STARLINK-304651 57891U 23146A   26144.97123000 -.00001764  00000+0 -54634-4 0  99902 57891  42.9979 243.3155 0001836 273.1497  86.9144 15.27562059148722

JSON: /api/v1/satellites/57891 · /tle

For live sub-satellite position, see the globe view (requires WebGL).

§ Visibility from observer

Set your observer location to see the next 7 days of passes ≥ 10°. The values pass through the URL so the page stays shareable.

No JS? Fill the form by hand. The geolocation button needs JavaScript.